Regional Weather Roundup
Issued by NWS

Home | Current Version | Previous Version | Graphics & Text | Print | Product List | Glossary On
Versions: 1 2 3 4 5 6 7 8 9 10 11 12 13 14 15 16 17 18 19 20 21 22 23 24 25 26 27 28 29 30 31 32 33 34 35 36 37 38 39 40 41 42 43 44 45 46 47 48 49 50
000
ASUS45 KSLC 190910
RWRUT

UTAH REGIONAL WEATHER ROUNDUP
NATIONAL WEATHER SERVICE SALT LAKE CITY UT
200 AM MST MON FEB 19 2018

UTZ001>011-023>025-191000-

NORTHERN UTAH

CITY           SKY/WX    TMP DP  RH WIND       PRES   REMARKS
BRIGHAM CITY   CLOUDY    29  25  85 NW3       29.47F
HILL AFB       CLOUDY    27  27  99 N6        29.44F WCI  20
LOGAN          LGT SNOW  28  24  85 N5        29.49F FOG     WCI  23
OGDEN          LGT SNOW  29  26  89 N6        29.45F FOG     WCI  23
SALT LAKE CITY LGT SNOW  32  30  92 N10       29.46F VSB 1   WCI  24
TOOELE VALLEY  LGT SNOW  30  30 100 CALM      29.49R
WENDOVER       FLURRIES  27  22  81 W5        29.54F WCI  22
HEBER CITY     LGT SNOW  27  23  86 NE6       29.41S WCI  20
WEST JORDAN    CLOUDY    28  28 100 NW8       29.47F WCI  19

$$

UTZ011>015-024>027-191000-

CENTRAL/NORTHEAST UTAH

CITY           SKY/WX    TMP DP  RH WIND       PRES   REMARKS
PROVO AIRPORT  CLOUDY    29  28  96 NW17      29.44F WCI  17
MOAB/CANYONLAN CLOUDY   N/A N/A N/A S23G29    29.39F
DELTA          CLOUDY    28  28 100 N9        29.46R VSB 1/4 WCI  20
PRICE          CLOUDY    41  20  43 S16       29.32F
RICHFIELD      MOCLDY    46  19  34 SW21G29   29.33F
ROOSEVELT      MOCLDY    34  19  55 CALM      29.33F
VERNAL         CLOUDY    39  20  46 N6        29.33S WCI  35

$$

UTZ013>016-019>022-027-191000-

SOUTHERN UTAH

CITY           SKY/WX    TMP DP  RH WIND       PRES   REMARKS
BRYCE CANYON   LGT SNOW  32  27  81 SW26G38   29.47S WCI  18
CEDAR CITY     PTCLDY    42  24  49 S30G58    29.39F
MILFORD        CLOUDY    43  22  43 SW13G22   29.40R
ST GEORGE      CLOUDY    55  29  36 SW37G46   29.42R
HANKSVILLE     MOCLDY    50  27  40 SW22G35   29.42F
KANAB          MOCLDY    46  27  46 SW15G25   29.53F
BLANDING         N/A     40  28  60 S21G30    29.63F WCI  31

$$

REGIONAL REPORTS     COLORADO/ARIZONA

CITY           SKY/WX    TMP DP  RH WIND       PRES   REMARKS
CRAIG, CO      CLOUDY    29  24  82 CALM      29.41R
GRAND JUNCTION MOCLDY    48  27  44 S25G32    29.42S
RIFLE, CO      CLOUDY    48  24  39 S31G38    29.41S
MONTROSE, CO   MOCLDY    45  24  43 SW15G31   29.54R
CORTEZ, CO     CLOUDY    43  28  55 SW12      29.63F
COLORADO CITY    N/A     45  30  57 S20G25    29.50F
PAGE, AZ       CLEAR     54  22  28 SW23G35   29.47F
GRAND CANYON   MOCLDY    39  32  76 S28G38    29.62F WCI  28
KINGMAN, AZ    CLEAR     50  29  44 SW14      29.64F
FLAGSTAFF, AZ  CLOUDY    36  32  85 SW30G40   29.70S WCI  23

$$

REGIONAL REPORTS    NEVADA/IDAHO/WYOMING

CITY           SKY/WX    TMP DP  RH WIND       PRES   REMARKS
LAS VEGAS, NV  PTCLDY    54  28  36 SW30G39   29.50F
ELY, NY        LGT SNOW  24  17  74 W18       29.46R WCI  10
ELKO, NV       LGT SNOW  22  20  92 N9        29.55S VSB 3/4 WCI  12
POCATELLO, ID  CLOUDY    26  18  71 SW14      29.56R WCI  14
BURLEY, ID     PTCLDY    17  12  80 S7        29.55S WCI   8
EVANSTON, WY   LGT SNOW  20  18  92 NE6       29.41F VSB 3/4 WCI  12
ROCK SPRINGS,  LGT SNOW   7   1  76 NE21G26   29.45F WCI -13

$$



USA.gov is the U.S. government's official web portal to all federal, state and local government web resources and services.